Home   Weather   Fujisawa Shi   Past weeks
Flag for Japan

Past Weather in Fujisawa Shi, Japan — Yesterday and Last 2 Weeks

Now
81 °F

Passing clouds.


Feels Like: 88 °F
Forecast: 93 / 78 °F
Wind: 8 mph from South

Location: Tokyo

Current Time: Aug 6, 2020 at 10:00:18 pm

Latest Report: Aug 6, 2020 at 9:00 pm


Visibility: 9 mi

Pressure: 29.88 "Hg

Humidity: 84%

Dew Point: 76 °F

Location of Fujisawa ShiLocation

Past Weather in Fujisawa Shi — Graph

°F

Fujisawa Shi Temperature Yesterday

Maximum temperature yesterday: 92 °F (at 2:00 pm)
Minimum temperature yesterday: 78 °F (at 1:00 am)
Average temperature yesterday: 84 °F

High & Low Weather Summary for the Past Weeks

 TemperatureHumidityPressure
High92 °F (Aug 5, 2:00 pm)100% (Jul 23, 3:00 am)30.04 "Hg (Jul 23, 3:00 am)
Low69 °F (Jul 30, 3:00 am)50% (Aug 3, 2:00 pm)29.75 "Hg (Jul 23, 2:00 am)
Average79 °F86%29.91 "Hg
* Reported Jul 22 8:00 pm — Aug 6 8:00 pm, Fujisawa Shi. Weather by CustomWeather, © 2020

Note: Actual official high and low records may vary slightly from our data, if they occured in-between our weather recording intervals... More about our weather records

Fujisawa Shi Weather History for the Previous 24 Hours

Scroll right to see more
 ConditionsComfort  
Time TempWeatherWind HumidityBarometerVisibility
8:00 pm
Thu, Aug 6
81 °FWarm.10 mph83%29.87 "HgN/A
7:00 pm82 °FWarm.10 mph78%29.87 "HgN/A
6:00 pm84 °FOvercast.12 mph74%29.87 "Hg9 mi
5:00 pm86 °FWarm.9 mph72%29.86 "HgN/A
4:00 pm87 °FWarm.14 mph70%29.87 "HgN/A
3:00 pm88 °FOvercast.10 mph68%29.89 "Hg9 mi
2:00 pm89 °FHot.12 mph64%29.90 "HgN/A
1:00 pm90 °FHot.10 mph64%29.91 "HgN/A
12:00 pm90 °FPassing clouds.12 mph63%29.91 "Hg12 mi
11:00 am89 °FHot.12 mph67%29.91 "HgN/A
10:00 am87 °FWarm.7 mph69%29.93 "HgN/A
9:00 am85 °FPartly sunny.6 mph74%29.95 "Hg9 mi
8:00 am83 °FWarm.6 mph83%29.96 "HgN/A
7:00 am81 °FWarm.7 mph87%29.98 "HgN/A
6:00 am80 °FPartly sunny.3 mph89%29.98 "Hg9 mi
5:00 am79 °FWarm.5 mph89%29.98 "HgN/A
4:00 am79 °FWarm.5 mph90%29.98 "HgN/A
3:00 am78 °FPassing clouds.3 mph94%29.99 "Hg12 mi
2:00 am78 °FWarm.5 mph93%29.99 "HgN/A
1:00 am79 °FWarm.5 mph93%30.01 "HgN/A
12:00 am80 °FWarm.6 mph91%30.01 "HgN/A
11:00 pm
Wed, Aug 5
81 °FWarm.6 mph82%30.01 "HgN/A
10:00 pm81 °FWarm.8 mph82%30.02 "HgN/A
Weather by CustomWeather, © 2020

See weather overview